Location: Unspecified
(0.0000°N, 0.0000°E)
Time: 18:11:42
(UTC+00:00)

STARLINK 1055 - Pass Details

Date: 19 January 2020
Orbit: 548 x 551 km, 53.0° (Epoch: 17 January)

Event Time Altitude Azimuth Distance (km) Brightness Sun altitude
Rises 18:29:05 0° 304° (WNW) 2,701 7.7 -4.3°
Reaches altitude 10° 18:31:39 10° 289° (WNW) 1,811 7.1 -4.9°
Maximum altitude 18:34:56 23° 236° (SW) 1,186 6.5 -5.7°
Drops below altitude 10° 18:38:15 10° 182° (S) 1,818 6.6 -6.5°
Sets 18:40:50 0° 167° (SSE) 2,714 7.3 -7.1°
